EW2835 Weather Reports


Display with metric or nautical units.
time (UTC)temp
F
wind
direction
speed
MPH
gust
MPH
rain 1hr
in
rain 24hr
in
rain mn
in
humidity
%
barometer
mb
20260505191612 60 61 2.0 9.0 0.00 0.01 0.01 81 1007.3
20260505184559 61 59 2.0 10.0 0.00 0.01 0.01 79 1007.1
20260505183058 62 15 3.0 10.0 0.00 0.01 0.01 78 1007.0
20260505181557 62 92 2.0 9.0 0.00 0.01 0.01 77 1007.0
20260505174604 63 48 1.0 7.0 0.00 0.01 0.01 75 1007.1
20260505173057 64 50 1.0 5.0 0.00 0.01 0.01 74 1007.0
20260505171553 64 43 2.0 9.0 0.00 0.01 0.01 73 1007.1
20260505170107 64 27 0.0 6.0 0.00 0.01 0.01 74 1007.1
20260505164553 64 323 1.0 7.0 0.00 0.01 0.01 73 1007.2
20260505163049 65 345 2.0 6.0 0.00 0.01 0.01 72 1007.2
20260505153042 66 25 2.0 7.0 0.00 0.01 0.01 70 1007.5
20260505151556 66 347 2.0 9.0 0.00 0.01 0.01 69 1007.6
20260505124528 68 308 0.0 7.0 0.00 0.01 0.01 67 1008.3
20260505123025 68 312 3.0 7.0 0.00 0.01 0.01 64 1008.4
20260505121523 67 306 2.0 5.0 0.00 0.01 0.01 67 1008.5
20260505120022 67 225 0.0 5.0 0.00 0.01 0.01 68 1008.5
20260505114519 66 254 0.0 5.0 0.00 0.01 0.01 68 1008.6
20260505113051 65 327 1.0 5.0 0.00 0.01 0.01 71 1008.7
20260505111547 65 282 0.0 5.0 0.00 0.01 0.01 76 1008.9
20260505101541 63 21 0.0 2.0 0.00 0.01 0.01 80 1009.1
20260505100035 62 11 1.0 4.0 0.00 0.01 0.01 79 1009.2
20260505094536 63 184 0.0 3.0 0.00 0.01 0.01 79 1009.2
20260505093040 62 345 1.0 4.0 0.00 0.01 0.01 80 1009.2
20260505091530 62 51 0.0 2.0 0.00 0.01 0.01 80 1009.2
20260505090028 61 26 0.0 3.0 0.00 0.01 0.01 83 1009.3
20260505084527 61 86 1.0 4.0 0.00 0.01 0.01 81 1009.3
20260505083027 61 176 0.0 3.0 0.00 0.01 0.01 85 1009.4
20260505081529 60 86 0.0 3.0 0.00 0.01 0.01 83 1009.5
20260505080020 59 31 0.0 3.0 0.00 0.01 0.01 84 1009.5
20260505074519 59 86 1.0 3.0 0.00 0.01 0.01 83 1009.6
20260505073017 59 90 0.0 3.0 0.00 0.01 0.01 85 1009.7
20260505071515 58 64 2.0 5.0 0.00 0.01 0.01 84 1009.6
20260505070015 59 92 1.0 6.0 0.00 0.01 0.01 86 1009.4
20260505064511 58 42 3.0 8.0 0.00 0.01 0.01 86 1009.5
20260505063012 58 55 2.0 6.0 0.00 0.01 0.01 87 1009.4
20260505061507 58 63 4.0 9.0 0.00 0.01 0.01 87 1009.5
20260505060009 57 55 3.0 6.0 0.01 0.01 0.01 88 1009.7
20260505054502 57 46 1.0 4.0 0.01 0.01 0.01 88 1009.8
20260505053107 57 54 1.0 4.0 0.01 0.01 0.01 88 1009.8
20260505051556 57 50 0.0 4.0 0.01 0.01 0.01 87 1009.7
20260505041545 56 30 0.0 2.0 0.00 0.00 0.00 86 1009.9
20260505040043 57 30 0.0 3.0 0.00 0.00 0.00 85 1009.9
20260505034541 57 50 0.0 2.0 0.00 0.00 0.00 84 1010.0
20260505033102 57 63 0.0 3.0 0.00 0.00 0.00 84 1009.9
20260505031540 57 304 0.0 1.0 0.00 0.00 0.00 83 1010.0
20260505030037 57 304 0.0 0.0 0.00 0.00 0.00 83 1010.1
20260505024536 57 304 0.0 1.0 0.00 0.00 0.00 82 1010.2
20260505023037 57 304 0.0 2.0 0.00 0.00 0.00 82 1010.3
20260505021532 58 304 0.0 2.0 0.00 0.00 0.00 81 1010.5
20260505020031 58 252 0.0 1.0 0.00 0.00 0.00 81 1010.7
20260505014533 58 275 1.0 4.0 0.00 0.00 0.00 80 1010.7
20260505013029 58 81 3.0 6.0 0.00 0.00 0.00 80 1010.4
20260505011530 58 47 3.0 8.0 0.00 0.00 0.00 80 1010.4
20260505010027 58 66 0.0 5.0 0.00 0.00 0.00 80 1010.5
20260505004538 58 66 1.0 4.0 0.00 0.00 0.00 80 1010.7
20260505003023 58 62 1.0 5.0 0.00 0.00 0.00 80 1010.8
20260505001522 58 70 2.0 5.0 0.00 0.00 0.00 80 1010.9
20260505000024 58 36 0.0 3.0 0.00 0.00 0.00 80 1011.0
20260504234528 58 69 1.0 4.0 0.00 0.00 0.00 79 1011.2
20260504233019 59 76 1.0 4.0 0.00 0.00 0.00 79 1011.2
20260504231532 59 71 1.0 5.0 0.00 0.00 0.00 78 1011.4
20260504230016 59 42 2.0 8.0 0.00 0.00 0.00 79 1011.4
20260504224516 59 76 2.0 4.0 0.00 0.00 0.00 79 1011.5
20260504223013 59 19 1.0 4.0 0.00 0.00 0.00 79 1011.5
20260504221511 58 51 1.0 7.0 0.00 0.00 0.00 80 1011.5
20260504220009 58 39 0.0 1.0 0.00 0.00 0.00 80 1011.6
20260504214515 58 61 0.0 4.0 0.00 0.00 0.00 81 1011.5
20260504213008 58 13 0.0 2.0 0.00 0.00 0.00 81 1011.7
20260504211507 58 332 0.0 0.0 0.00 0.00 0.00 80 1011.7
20260504210010 59 332 0.0 0.0 0.00 0.00 0.00 80 1011.7
20260504204506 59 332 0.0 0.0 0.00 0.00 0.00 79 1011.7
20260504203005 60 332 0.0 0.0 0.00 0.00 0.00 78 1011.8
20260504201504 60 332 0.0 0.0 0.00 0.00 0.00 78 1011.7
20260504200009 61 332 0.0 0.0 0.00 0.00 0.00 77 1011.6
20260504194509 61 332 0.0 0.0 0.00 0.00 0.00 75 1011.6
20260504193009 62 332 0.0 0.0 0.00 0.00 0.00 73 1011.5